Hourly Data Report for October 03, 2017

All times are specified in Local Standard Time (LST). Add 1 hour to adjust for Daylight Saving Time where and when it is observed.

RESOLUTE BAY A
NUNAVUT

74°43'01.000" N
94°58'10.000" W
67.70 m
2403498
71924
YRB

Download Data

Hourly Data (October 2017)
Hourly Data Report for October 3, 2017
Temp Definition
°C
Dew Point Temp Definition
°C
Rel Hum Definition
%
Wind Dir Definition
10's deg

Wind Spd Definition
km/h
Visibility Definition
km
Stn Press Definition
kPa
Hmdx Definition


Wind Chill Definition


Weather Definition


TIME
00:00 Legend Double Dagger -8.9 -10.6 88 2 43 24.1 99.40   -20 Snow,Blowing Snow
01:00 Legend Double Dagger -9.6 -11.5 86 1 44 24.1 99.41   -21 Snow,Blowing Snow
02:00 Legend Double Dagger -9.7 -11.7 86 1 40 24.1 99.41   -20 Snow,Blowing Snow
03:00 Legend Double Dagger -10.2 -12.3 85 1 40 24.1 99.39   -21 Snow
04:00 Legend Double Dagger -11.5 -13.6 84 36 38 24.1 99.35   -23 Blowing Snow
05:00 Legend Double Dagger -12.2 -14.6 82 2 48 19.3 99.33   -25 Blowing Snow
06:00 Legend Double Dagger -12.6 -15.0 82 2 45 24.1 99.33   -25 Blowing Snow
07:00 Legend Double Dagger -12.6 -14.9 83 2 41 24.1 99.33   -24 Blowing Snow
08:00 Legend Double Dagger -12.0 -14.2 84 1 45 24.1 99.30   -24 Blowing Snow
09:00 Legend Double Dagger -11.1 -13.3 84 2 49 14.5 99.25   -23 Blowing Snow
10:00 Legend Double Dagger -10.3 -12.3 85 1 51 4.0 99.23   -22 Blowing Snow
11:00 Legend Double Dagger -9.6 -11.8 85 1 53 16.1 99.20   -21 Blowing Snow
12:00 Legend Double Dagger -9.3 -11.4 85 1 48 16.1 99.18   -21 Blowing Snow
13:00 Legend Double Dagger -9.3 -11.4 85 1 50 16.1 99.17   -21 Blowing Snow
14:00 Legend Double Dagger -9.6 -11.7 85 1 49 16.1 99.17   -21 Blowing Snow
15:00 Legend Double Dagger -9.2 -11.4 84 1 49 16.1 99.20   -21 Blowing Snow
16:00 Legend Double Dagger -8.9 -11.0 85 1 57 6.4 99.16   -21 Blowing Snow
17:00 Legend Double Dagger -9.3 -11.2 86 1 50 6.4 99.16   -21 Blowing Snow
18:00 Legend Double Dagger -8.9 -10.8 86 1 60 8.1 99.14   -21 Blowing Snow
19:00 Legend Double Dagger -9.0 -10.9 86 1 48 16.1 99.19   -20 Blowing Snow
20:00 Legend Double Dagger -8.4 -10.5 85 1 54 2.4 99.15   -20 Blowing Snow
21:00 Legend Double Dagger -8.2 -10.0 87 1 68 0.8 99.12   -21 Blowing Snow
22:00 Legend Double Dagger -7.8 -9.7 86 1 67 0.8 99.10   -20 Blowing Snow
23:00 Legend Double Dagger -8.0 -9.8 87 2 73 0.8 99.08   -21 Blowing Snow

Notes on Data Quality.

Legend

  • E = Estimated
  • M = Missing
  • NA = Not Available
  • ‡ = Partner data that is not subject to review by the National Climate Archives
Date modified: